Tracking 25934 objects as of 11-Aug-2022
HD Live streaming from Space Station
objects crossing your sky now

FREGAT R/B

Track FREGAT R/B now!


NORAD ID: 41033
Int'l Code: 2015-066B
Perigee: 1,652.5 km
Apogee: 38,555.5 km
Inclination: 63.2 °
Period: 714.5 minutes
Semi major axis: 26474 km
RCS: Unknown
Launch date: November 17, 2015
Source: Commonwealth of Independent States (former USSR) (CIS)
Launch site: PLESETSK MISSILE AND SPACE COMPLEX (PKMTR)

Note: This is a ROCKET BODY
aabbcc
Your satellite tracking list
Your tracking list is empty




NASA's NSSDC Master Catalog

Two Line Element Set (TLE):
1 41033U 15066B   22222.06424756  .00001182  00000-0  00000-0 0  9995
2 41033  63.2420 158.8994 6969416 261.3949  20.7803  2.01534264 49548
Source of the keplerian elements: AFSPC